Tracking 35237 objects as of 5-Sep-2026
HD Live streaming from Space Station
objects crossing your sky now

STARLINK-36868

Track STARLINK-36868 now!
10-day predictions
STARLINK-36868 is classified as:


NORAD ID: 68120
Int'l Code: 2026-044V
Launch date: March 8, 2026
Source: United States (US)
Launch site: AIR FORCE WESTERN TEST RANGE (AFWTR)
Your satellite tracking list
Your tracking list is empty




NASA's NSSDC Master Catalog

Two Line Element Set (TLE):
1 68120U 26044V   26248.44683197  .00009201  00000-0  28700-3 0  9999
2 68120  97.2846 207.6510 0002017  95.5193 264.6280 15.33442268 29139
Source of the keplerian elements: AFSPC